When you browse on this site, cookies collect data to enhance your experience and personalize the content and advertising you see.
Visit our Privacy Policy to learn more. By continuing to use the site, you agree to this use of cookies and data.
  • In Czech Republic
  • List of Countries
  • For 7 days
  • Water Temperature
  • Weather Map
  • Weather Widgets
  • user-avatar
    Login

    Hourly Weather Batir

    Today, 29 May, Friday

    Time Temperature Precipitation Wind Pressure Humidity
    00:00 +10°C° 0 mm 5 mps 741 mmHg 90%
    01:00 +10°C° 0 mm 5 mps 741 mmHg 89%
    02:00 +10°C° 0 mm 5 mps 741 mmHg 88%
    03:00 +9°C° 0 mm 5 mps 741 mmHg 88%
    04:00 +9°C° 0 mm 5 mps 741 mmHg 88%
    05:00 +10°C° 0 mm 4 mps 741 mmHg 88%
    06:00 +9°C° 0 mm 5 mps 741 mmHg 87%
    07:00 +10°C° 0 mm 6 mps 742 mmHg 85%
    08:00 +10°C° 0 mm 7 mps 742 mmHg 84%
    09:00 +11°C° 0.1 mm 8 mps 742 mmHg 81%
    10:00 +12°C° 0.1 mm 8 mps 742 mmHg 79%
    11:00 +12°C° 0.1 mm 8 mps 742 mmHg 76%
    12:00 +13°C° 0.1 mm 8 mps 742 mmHg 72%
    13:00 +15°C° 0.1 mm 7 mps 742 mmHg 68%
    14:00 +16°C° 0.1 mm 6 mps 742 mmHg 64%
    15:00 +16°C° 0.1 mm 6 mps 741 mmHg 64%
    16:00 +17°C° 0.1 mm 6 mps 741 mmHg 64%
    17:00 +17°C° 0.1 mm 5 mps 741 mmHg 64%
    18:00 +15°C° 0.2 mm 5 mps 741 mmHg 70%
    19:00 +14°C° 0.2 mm 4 mps 741 mmHg 76%
    20:00 +13°C° 0.2 mm 3 mps 741 mmHg 83%
    21:00 +12°C° 0 mm 3 mps 741 mmHg 85%
    22:00 +11°C° 0 mm 3 mps 741 mmHg 88%
    23:00 +11°C° 0 mm 4 mps 741 mmHg 90%

    Tomorrow, 30 May, Saturday

    Time Temperature Precipitation Wind Pressure Humidity
    00:00 +10°C° 0 mm 4 mps 741 mmHg 90%
    01:00 +10°C° 0 mm 4 mps 741 mmHg 91%
    02:00 +10°C° 0 mm 4 mps 741 mmHg 92%
    03:00 +8°C° 0 mm 4 mps 741 mmHg 91%
    04:00 +8°C° 0 mm 4 mps 741 mmHg 91%
    05:00 +8°C° 0 mm 4 mps 740 mmHg 90%
    06:00 +9°C° 0 mm 5 mps 741 mmHg 85%
    07:00 +12°C° 0 mm 5 mps 741 mmHg 79%
    08:00 +13°C° 0 mm 6 mps 741 mmHg 73%
    09:00 +15°C° 0 mm 6 mps 741 mmHg 68%
    10:00 +16°C° 0 mm 6 mps 741 mmHg 63%
    11:00 +17°C° 0 mm 7 mps 741 mmHg 58%
    12:00 +17°C° 0.3 mm 6 mps 741 mmHg 57%
    13:00 +19°C° 0.3 mm 6 mps 741 mmHg 57%
    14:00 +19°C° 0.3 mm 6 mps 741 mmHg 56%
    15:00 +19°C° 0.8 mm 5 mps 740 mmHg 59%
    16:00 +19°C° 0.8 mm 4 mps 740 mmHg 61%
    17:00 +18°C° 0.8 mm 3 mps 740 mmHg 63%
    18:00 +17°C° 0.6 mm 3 mps 740 mmHg 69%
    19:00 +16°C° 0.6 mm 2 mps 740 mmHg 74%
    20:00 +14°C° 0.6 mm 1 mps 740 mmHg 80%
    21:00 +14°C° 0.3 mm 1 mps 740 mmHg 82%
    22:00 +13°C° 0.3 mm 1 mps 740 mmHg 84%
    23:00 +12°C° 0.3 mm 1 mps 740 mmHg 87%

    Day after tomorrow, 31 May, Sunday

    Time Temperature Precipitation Wind Pressure Humidity
    00:00 +12°C° 0 mm 1 mps 740 mmHg 87%
    01:00 +12°C° 0 mm 1 mps 740 mmHg 87%
    02:00 +11°C° 0 mm 1 mps 740 mmHg 87%
    03:00 +11°C° 0 mm 1 mps 740 mmHg 87%
    04:00 +11°C° 0 mm 1 mps 740 mmHg 86%
    05:00 +11°C° 0 mm 1 mps 740 mmHg 85%
    06:00 +13°C° 0 mm 2 mps 740 mmHg 79%
    07:00 +14°C° 0 mm 3 mps 740 mmHg 72%
    08:00 +17°C° 0 mm 4 mps 740 mmHg 65%
    09:00 +18°C° 0 mm 3 mps 740 mmHg 58%
    10:00 +20°C° 0 mm 3 mps 740 mmHg 52%
    11:00 +21°C° 0 mm 3 mps 740 mmHg 45%
    12:00 +21°C° 0.1 mm 3 mps 740 mmHg 47%
    13:00 +21°C° 0.1 mm 3 mps 740 mmHg 49%
    14:00 +22°C° 0.1 mm 4 mps 740 mmHg 51%
    15:00 +21°C° 0.5 mm 4 mps 740 mmHg 53%
    16:00 +21°C° 0.5 mm 4 mps 740 mmHg 55%
    17:00 +21°C° 0.5 mm 4 mps 740 mmHg 57%
    18:00 +20°C° 0.7 mm 3 mps 740 mmHg 62%
    19:00 +18°C° 0.7 mm 2 mps 740 mmHg 68%
    20:00 +17°C° 0.7 mm 2 mps 740 mmHg 73%
    21:00 +16°C° 0 mm 2 mps 740 mmHg 76%
    22:00 +14°C° 0 mm 3 mps 740 mmHg 79%
    23:00 +14°C° 0 mm 3 mps 741 mmHg 82%

    1 June, Monday

    Time Temperature Precipitation Wind Pressure Humidity
    00:00 +13°C° 0 mm 3 mps 741 mmHg 84%
    01:00 +14°C° 0 mm 2 mps 741 mmHg 85%
    02:00 +13°C° 0 mm 2 mps 741 mmHg 87%
    03:00 +13°C° 0 mm 2 mps 741 mmHg 87%
    04:00 +13°C° 0 mm 2 mps 741 mmHg 87%
    05:00 +13°C° 0 mm 1 mps 741 mmHg 87%
    06:00 +15°C° 0 mm 1 mps 741 mmHg 80%
    07:00 +18°C° 0 mm 1 mps 742 mmHg 72%
    08:00 +20°C° 0 mm 1 mps 742 mmHg 64%
    09:00 +20°C° 0.4 mm 2 mps 742 mmHg 60%
    10:00 +21°C° 0.4 mm 2 mps 743 mmHg 56%
    11:00 +23°C° 0.4 mm 2 mps 743 mmHg 51%
    12:00 +23°C° 0.7 mm 2 mps 743 mmHg 50%
    13:00 +24°C° 0.7 mm 2 mps 742 mmHg 49%
    14:00 +24°C° 0.7 mm 2 mps 742 mmHg 48%
    15:00 +24°C° 0.2 mm 2 mps 742 mmHg 50%
    16:00 +23°C° 0.2 mm 2 mps 742 mmHg 52%
    17:00 +23°C° 0.2 mm 1 mps 742 mmHg 53%
    18:00 +22°C° 0.3 mm 1 mps 742 mmHg 60%
    19:00 +20°C° 0.3 mm 1 mps 742 mmHg 66%
    20:00 +18°C° 0.3 mm 1 mps 742 mmHg 72%
    21:00 +18°C° 0 mm 1 mps 742 mmHg 74%
    22:00 +16°C° 0 mm 1 mps 742 mmHg 76%
    23:00 +15°C° 0 mm 1 mps 742 mmHg 79%

    2 June, Tuesday

    Time Temperature Precipitation Wind Pressure Humidity
    00:00 +15°C° 0 mm 1 mps 742 mmHg 81%
    01:00 +15°C° 0 mm 1 mps 742 mmHg 82%
    02:00 +14°C° 0 mm 1 mps 742 mmHg 84%
    03:00 +14°C° 0.1 mm 1 mps 742 mmHg 87%
    04:00 +14°C° 0.1 mm 2 mps 742 mmHg 90%
    05:00 +13°C° 0.1 mm 3 mps 742 mmHg 93%
    06:00 +13°C° 0.3 mm 3 mps 742 mmHg 91%
    07:00 +14°C° 0.3 mm 4 mps 743 mmHg 90%
    08:00 +15°C° 0.3 mm 4 mps 743 mmHg 88%
    09:00 +16°C° 0.2 mm 5 mps 743 mmHg 85%
    10:00 +16°C° 0.2 mm 5 mps 744 mmHg 82%
    11:00 +17°C° 0.2 mm 6 mps 744 mmHg 79%
    12:00 +17°C° 0.3 mm 6 mps 744 mmHg 76%
    13:00 +19°C° 0.3 mm 6 mps 744 mmHg 72%
    14:00 +20°C° 0.3 mm 6 mps 744 mmHg 69%
    15:00 +20°C° 0.3 mm 6 mps 743 mmHg 68%
    16:00 +20°C° 0.3 mm 6 mps 743 mmHg 67%
    17:00 +20°C° 0.3 mm 6 mps 743 mmHg 67%
    18:00 +17°C° 0 mm 5 mps 743 mmHg 70%
    19:00 +16°C° 0 mm 5 mps 743 mmHg 74%
    20:00 +14°C° 0 mm 4 mps 743 mmHg 78%
    21:00 +13°C° 0 mm 4 mps 744 mmHg 78%
    22:00 +13°C° 0 mm 3 mps 744 mmHg 79%
    23:00 +12°C° 0 mm 3 mps 744 mmHg 80%

    3 June, Wednesday

    Time Temperature Precipitation Wind Pressure Humidity
    00:00 +11°C° 0 mm 3 mps 744 mmHg 81%
    01:00 +11°C° 0 mm 3 mps 744 mmHg 83%
    02:00 +10°C° 0 mm 3 mps 744 mmHg 84%
    03:00 +10°C° 0 mm 3 mps 744 mmHg 85%
    04:00 +10°C° 0 mm 2 mps 743 mmHg 86%
    05:00 +10°C° 0 mm 2 mps 743 mmHg 86%
    06:00 +12°C° 0 mm 3 mps 744 mmHg 80%
    07:00 +14°C° 0 mm 3 mps 744 mmHg 73%
    08:00 +17°C° 0 mm 3 mps 744 mmHg 67%
    09:00 +18°C° 0.1 mm 3 mps 744 mmHg 64%
    10:00 +19°C° 0.1 mm 3 mps 744 mmHg 62%
    11:00 +20°C° 0.1 mm 3 mps 744 mmHg 59%
    12:00 +20°C° 1.2 mm 3 mps 744 mmHg 59%
    13:00 +21°C° 1.2 mm 3 mps 744 mmHg 59%
    14:00 +21°C° 1.2 mm 3 mps 743 mmHg 59%
    15:00 +21°C° 0.6 mm 3 mps 743 mmHg 57%
    16:00 +22°C° 0.6 mm 3 mps 743 mmHg 56%
    17:00 +22°C° 0.6 mm 3 mps 743 mmHg 54%
    18:00 +20°C° 0.1 mm 3 mps 743 mmHg 62%
    19:00 +18°C° 0.1 mm 2 mps 743 mmHg 69%
    20:00 +17°C° 0.1 mm 2 mps 743 mmHg 76%
    21:00 +16°C° 0 mm 2 mps 743 mmHg 79%
    22:00 +15°C° 0 mm 1 mps 744 mmHg 82%
    23:00 +14°C° 0 mm 1 mps 744 mmHg 84%
    Show more